{"data":{"norad_id":66866,"epoch":"2026-09-20T21:16:25.925952Z","epoch_age_seconds":50666,"freshness":"FRESH","line1":"1 66866U 25281U   26263.88641118  .00008701  00000+0  32524-3 0  9990","line2":"2 66866  43.0034 321.5122 0001780 284.8351  75.2304 15.27589014 46026","mean_motion":15.27589014,"eccentricity":0.000178,"inclination_deg":43.0034,"raan_deg":321.5122,"arg_perigee_deg":284.8351,"mean_anomaly_deg":75.2304,"bstar":0.00032524,"rev_number":4602,"period_min":94.266192464251,"perigee_km":481.80081869292,"apogee_km":484.2433913343,"semimajor_km":6861.1591050136,"source":"CELESTRAK","updated_at":"2026-09-21T09:00:36.029463Z"}}